Location: Unspecified
(0.0000°N, 0.0000°E)
Time: 09:48:25
(UTC+00:00)

Vanguard 2 - Pass Details

Date: 21 October 2021
Orbit: 554 x 2936 km, 32.9° (Epoch: 06 December)

Event Time Altitude Azimuth Distance (km) Brightness Sun altitude
Rises 18:01:36 0° 216° (SW) 5,692 12.8 -4.2°
Reaches altitude 10° 18:07:02 10° 199° (SSW) 5,085 12.1 -5.5°
Maximum altitude 18:16:56 19° 159° (SSE) 4,835 11.5 -7.9°
Drops below altitude 10° 18:28:00 10° 120° (ESE) 5,767 11.5 -10.7°
Enters shadow 18:32:22 - 109° (ESE) 6,352 11.7 -11.7°
Sets 18:34:45 0° 104° (ESE) 6,703 - -12.3°
